When you browse on this site, cookies collect data to enhance your experience and personalize the content and advertising you see.
Visit our Privacy Policy to learn more. By continuing to use the site, you agree to this use of cookies and data.
  • In Hungary
  • List of Countries
  • For 7 days
  • Water Temperature
  • Satellite Maps
  • Weather Map
  • News
  • Weather Widgets
  • user-avatar
    Login

    Hourly Weather Lyubeshov

    Today, 26 April, Friday

    Time Temperature Precipitation Wind Pressure Humidity
    00:00 +13°C° 0.6 mm 3 mps 750 mmHg 81%
    01:00 +13°C° 0.6 mm 3 mps 750 mmHg 83%
    02:00 +12°C° 0.6 mm 3 mps 750 mmHg 85%
    03:00 +12°C° 0.4 mm 3 mps 749 mmHg 87%
    04:00 +11°C° 0.4 mm 3 mps 749 mmHg 89%
    05:00 +11°C° 0.4 mm 3 mps 749 mmHg 91%
    06:00 +12°C° 0 mm 3 mps 749 mmHg 87%
    07:00 +14°C° 0 mm 3 mps 749 mmHg 83%
    08:00 +16°C° 0 mm 3 mps 749 mmHg 80%
    09:00 +18°C° 0 mm 4 mps 749 mmHg 73%
    10:00 +20°C° 0 mm 4 mps 748 mmHg 66%
    11:00 +22°C° 0 mm 4 mps 748 mmHg 60%
    12:00 +23°C° 0.2 mm 4 mps 748 mmHg 56%
    13:00 +25°C° 0.2 mm 4 mps 747 mmHg 52%
    14:00 +26°C° 0.2 mm 4 mps 747 mmHg 48%
    15:00 +26°C° 0.1 mm 4 mps 747 mmHg 50%
    16:00 +26°C° 0.1 mm 4 mps 746 mmHg 51%
    17:00 +25°C° 0.1 mm 3 mps 746 mmHg 53%
    18:00 +24°C° 0.6 mm 3 mps 746 mmHg 61%
    19:00 +21°C° 0.6 mm 4 mps 745 mmHg 68%
    20:00 +19°C° 0.6 mm 4 mps 745 mmHg 75%
    21:00 +18°C° 0.6 mm 4 mps 745 mmHg 79%
    22:00 +18°C° 0.6 mm 4 mps 745 mmHg 84%
    23:00 +17°C° 0.6 mm 4 mps 745 mmHg 88%

    Tomorrow, 27 April, Saturday

    Time Temperature Precipitation Wind Pressure Humidity
    00:00 +17°C° 0 mm 4 mps 745 mmHg 89%
    01:00 +16°C° 0 mm 3 mps 745 mmHg 89%
    02:00 +16°C° 0 mm 3 mps 745 mmHg 90%
    03:00 +16°C° 0.9 mm 3 mps 744 mmHg 91%
    04:00 +16°C° 0.9 mm 3 mps 744 mmHg 92%
    05:00 +14°C° 0.9 mm 3 mps 744 mmHg 93%
    06:00 +15°C° 0.1 mm 4 mps 744 mmHg 89%
    07:00 +17°C° 0.1 mm 4 mps 744 mmHg 86%
    08:00 +18°C° 0.1 mm 4 mps 744 mmHg 82%
    09:00 +20°C° 0 mm 3 mps 744 mmHg 73%
    10:00 +22°C° 0 mm 3 mps 744 mmHg 64%
    11:00 +26°C° 0 mm 2 mps 744 mmHg 55%
    12:00 +26°C° 0 mm 3 mps 744 mmHg 52%
    13:00 +27°C° 0 mm 4 mps 743 mmHg 48%
    14:00 +28°C° 0 mm 4 mps 743 mmHg 44%
    15:00 +27°C° 0 mm 4 mps 743 mmHg 48%
    16:00 +26°C° 0 mm 4 mps 743 mmHg 51%
    17:00 +25°C° 0 mm 4 mps 743 mmHg 54%
    18:00 +22°C° 0.3 mm 3 mps 743 mmHg 62%
    19:00 +20°C° 0.3 mm 3 mps 743 mmHg 70%
    20:00 +18°C° 0.3 mm 3 mps 743 mmHg 79%
    21:00 +18°C° 0.1 mm 3 mps 743 mmHg 82%
    22:00 +17°C° 0.1 mm 3 mps 744 mmHg 86%
    23:00 +15°C° 0.1 mm 4 mps 744 mmHg 90%

    Day after tomorrow, 28 April, Sunday

    Time Temperature Precipitation Wind Pressure Humidity
    00:00 +14°C° 0.1 mm 3 mps 744 mmHg 90%
    01:00 +13°C° 0.1 mm 3 mps 744 mmHg 91%
    02:00 +12°C° 0.1 mm 3 mps 744 mmHg 92%
    03:00 +12°C° 0 mm 3 mps 744 mmHg 93%
    04:00 +11°C° 0 mm 3 mps 744 mmHg 94%
    05:00 +11°C° 0 mm 3 mps 744 mmHg 95%
    06:00 +11°C° 0 mm 3 mps 744 mmHg 91%
    07:00 +12°C° 0 mm 3 mps 744 mmHg 88%
    08:00 +13°C° 0 mm 4 mps 745 mmHg 85%
    09:00 +14°C° 0 mm 4 mps 745 mmHg 80%
    10:00 +16°C° 0 mm 3 mps 745 mmHg 74%
    11:00 +18°C° 0 mm 3 mps 745 mmHg 68%
    12:00 +18°C° 0 mm 4 mps 745 mmHg 68%
    13:00 +18°C° 0 mm 4 mps 745 mmHg 68%
    14:00 +18°C° 0 mm 4 mps 745 mmHg 68%
    15:00 +18°C° 0 mm 4 mps 744 mmHg 68%
    16:00 +18°C° 0 mm 4 mps 744 mmHg 69%
    17:00 +18°C° 0 mm 4 mps 744 mmHg 70%
    18:00 +17°C° 0 mm 4 mps 744 mmHg 74%
    19:00 +17°C° 0 mm 4 mps 745 mmHg 78%
    20:00 +16°C° 0 mm 3 mps 745 mmHg 82%
    21:00 +14°C° 0 mm 3 mps 745 mmHg 86%
    22:00 +14°C° 0 mm 3 mps 745 mmHg 89%
    23:00 +13°C° 0 mm 3 mps 745 mmHg 92%

    29 April, Monday

    Time Temperature Precipitation Wind Pressure Humidity
    00:00 +13°C° 0.1 mm 3 mps 745 mmHg 92%
    01:00 +13°C° 0.1 mm 4 mps 745 mmHg 92%
    02:00 +14°C° 0.1 mm 4 mps 745 mmHg 92%
    03:00 +13°C° 0.3 mm 5 mps 745 mmHg 91%
    04:00 +12°C° 0.3 mm 5 mps 745 mmHg 91%
    05:00 +11°C° 0.3 mm 6 mps 745 mmHg 91%
    06:00 +10°C° 1.3 mm 6 mps 745 mmHg 91%
    07:00 +10°C° 1.3 mm 6 mps 745 mmHg 90%
    08:00 +9°C° 1.3 mm 7 mps 745 mmHg 90%
    09:00 +9°C° 0.7 mm 7 mps 746 mmHg 88%
    10:00 +8°C° 0.7 mm 7 mps 746 mmHg 86%
    11:00 +8°C° 0.7 mm 7 mps 746 mmHg 84%
    12:00 +8°C° 0.2 mm 7 mps 746 mmHg 84%
    13:00 +8°C° 0.2 mm 7 mps 746 mmHg 84%
    14:00 +8°C° 0.2 mm 7 mps 746 mmHg 83%
    15:00 +8°C° 0.2 mm 6 mps 746 mmHg 83%
    16:00 +8°C° 0.2 mm 6 mps 746 mmHg 83%
    17:00 +8°C° 0.2 mm 6 mps 746 mmHg 84%
    18:00 +8°C° 0.2 mm 5 mps 746 mmHg 83%
    19:00 +7°C° 0.2 mm 5 mps 746 mmHg 83%
    20:00 +7°C° 0.2 mm 4 mps 747 mmHg 83%
    21:00 +7°C° 0.2 mm 4 mps 747 mmHg 82%
    22:00 +7°C° 0.2 mm 4 mps 747 mmHg 82%
    23:00 +7°C° 0.2 mm 4 mps 747 mmHg 81%

    30 April, Tuesday

    Time Temperature Precipitation Wind Pressure Humidity
    00:00 +7°C° 0.1 mm 4 mps 747 mmHg 81%
    01:00 +6°C° 0.1 mm 4 mps 746 mmHg 81%
    02:00 +6°C° 0.1 mm 4 mps 746 mmHg 81%
    03:00 +5°C° 0 mm 4 mps 746 mmHg 81%
    04:00 +5°C° 0 mm 4 mps 746 mmHg 81%
    05:00 +4°C° 0 mm 4 mps 746 mmHg 81%
    06:00 +5°C° 0 mm 4 mps 746 mmHg 79%
    07:00 +6°C° 0 mm 4 mps 746 mmHg 77%
    08:00 +6°C° 0 mm 4 mps 746 mmHg 74%
    09:00 +8°C° 0 mm 5 mps 746 mmHg 69%
    10:00 +10°C° 0 mm 5 mps 746 mmHg 64%
    11:00 +12°C° 0 mm 5 mps 746 mmHg 58%
    12:00 +13°C° 0 mm 5 mps 745 mmHg 55%
    13:00 +14°C° 0 mm 4 mps 745 mmHg 52%
    14:00 +15°C° 0 mm 4 mps 745 mmHg 49%
    15:00 +15°C° 0 mm 4 mps 745 mmHg 49%
    16:00 +15°C° 0 mm 4 mps 745 mmHg 48%
    17:00 +14°C° 0 mm 4 mps 744 mmHg 48%
    18:00 +13°C° 0 mm 3 mps 744 mmHg 54%
    19:00 +11°C° 0 mm 3 mps 744 mmHg 60%
    20:00 +9°C° 0 mm 3 mps 745 mmHg 67%
    21:00 +9°C° 0 mm 3 mps 745 mmHg 69%
    22:00 +8°C° 0 mm 3 mps 745 mmHg 70%
    23:00 +7°C° 0 mm 3 mps 745 mmHg 72%

    1 May, Wednesday

    Time Temperature Precipitation Wind Pressure Humidity
    00:00 +7°C° 0 mm 3 mps 745 mmHg 74%
    01:00 +5°C° 0 mm 3 mps 745 mmHg 76%
    02:00 +5°C° 0 mm 2 mps 745 mmHg 77%
    03:00 +5°C° 0 mm 2 mps 745 mmHg 77%
    04:00 +4°C° 0 mm 2 mps 745 mmHg 77%
    05:00 +4°C° 0 mm 2 mps 745 mmHg 77%
    06:00 +6°C° 0 mm 2 mps 745 mmHg 71%
    07:00 +8°C° 0 mm 3 mps 746 mmHg 64%
    08:00 +10°C° 0 mm 3 mps 746 mmHg 57%
    09:00 +11°C° 0 mm 3 mps 746 mmHg 51%
    10:00 +12°C° 0 mm 3 mps 746 mmHg 45%
    11:00 +14°C° 0 mm 3 mps 746 mmHg 38%
    12:00 +14°C° 0 mm 3 mps 746 mmHg 38%
    13:00 +14°C° 0 mm 3 mps 745 mmHg 37%
    14:00 +16°C° 0 mm 3 mps 745 mmHg 37%
    15:00 +16°C° 0 mm 3 mps 745 mmHg 38%
    16:00 +14°C° 0 mm 3 mps 745 mmHg 40%
    17:00 +14°C° 0 mm 4 mps 745 mmHg 41%
    18:00 +13°C° 0 mm 3 mps 745 mmHg 46%
    19:00 +13°C° 0 mm 2 mps 745 mmHg 51%
    20:00 +10°C° 0 mm 2 mps 745 mmHg 56%
    21:00 +10°C° 0 mm 2 mps 745 mmHg 56%
    22:00 +9°C° 0 mm 2 mps 745 mmHg 57%
    23:00 +9°C° 0 mm 2 mps 745 mmHg 57%
    Show more